This is the latest recevied weather packets stored in our database for station/object KC1BRV. If no packets are shown the sender has not sent any weather packets the latest 10 day(s).
| Time | Temp. | Humidity | Pressure | Rain* | Wind** | Luminosity | Snow |
|---|---|---|---|---|---|---|---|
| 1788186062 | 20° C | 87% | 1021.8 hPa | 0 mm | - | 98 W/m² | - |
| 1788185760 | 20° C | 88% | 1022 hPa | 0 mm | - | 53 W/m² | - |
| 1788185464 | 20° C | 88% | 1021.8 hPa | 0 mm | - | 52 W/m² | - |
| 1788185155 | 20° C | 89% | 1022 hPa | 0 mm | - | 64 W/m² | - |
| 1788184855 | 20° C | 90% | 1022 hPa | 0 mm | - | 64 W/m² | - |
| 1788184553 | 19.44° C | 91% | 1021.6 hPa | 0 mm | - | 63 W/m² | - |
| 1788184248 | 18.89° C | 92% | 1021.7 hPa | 0 mm | - | 43 W/m² | - |
| 1788183944 | 18.89° C | 94% | 1021.5 hPa | 0 mm | - | 50 W/m² | - |
| 1788183639 | 18.89° C | 95% | 1021.4 hPa | 0 mm | - | 43 W/m² | - |
| 1788183338 | 18.89° C | 97% | 1021.5 hPa | 0 mm | - | 178 W/m² | - |
| 1788183033 | 18.89° C | 98% | 1021.5 hPa | 0 mm | - | 79 W/m² | - |
| 1788182730 | 18.33° C | 98% | 1021.4 hPa | 0 mm | - | 73 W/m² | - |
| 1788182429 | 18.33° C | 99% | 1021.5 hPa | 0 mm | - | 63 W/m² | - |
| 1788182129 | 18.33° C | 99% | 1021.5 hPa | 0 mm | - | 48 W/m² | - |
| 1788181825 | 17.78° C | 99% | 1021.5 hPa | 0 mm | - | 89 W/m² | - |
| 1788181519 | 17.78° C | 99% | 1021.4 hPa | 0 mm | - | 38 W/m² | - |
| 1788181215 | 17.78° C | 99% | 1021.6 hPa | 0 mm | - | 34 W/m² | - |
| 1788180925 | 17.78° C | 99% | 1021.6 hPa | 0 mm | - | 39 W/m² | - |
| 1788180604 | 17.78° C | 99% | 1021.6 hPa | 0 mm | - | 35 W/m² | - |
| 1788180300 | 17.78° C | 99% | 1021.6 hPa | 0 mm | - | 34 W/m² | - |
| 1788179996 | 17.78° C | 99% | 1021.5 hPa | 0 mm | - | 35 W/m² | - |
| 1788179695 | 17.78° C | 99% | 1021.6 hPa | 0 mm | - | 39 W/m² | - |
| 1788179402 | 17.78° C | 99% | 1021.3 hPa | 0 mm | - | 35 W/m² | - |
| 1788179085 | 17.22° C | 99% | 1021.5 hPa | 0 mm | - | 31 W/m² | - |
| 1788178780 | 17.22° C | 99% | 1021.6 hPa | 0 mm | - | 34 W/m² | - |
* Rain latest hour (hover to see other rain measurements)
** Current wind speed in m/s (hover to see current wind gust speed)